Terminal Aerodrome Forecast
Issued by NWS

Home | Current Version | Previous Version | Graphics & Text | Print | Product List | Glossary On
Versions: 1 2 3 4 5 6 7 8 9 10 11 12 13 14 15 16
378
FTUS45 KGGW 011017 AAB
TAFSDY
TAF AMD
KSDY 011017Z 0110/0206 31005KT P6SM -SHSN OVC028
     FM011400 VRB03KT P6SM OVC010
     FM011800 VRB03KT P6SM OVC015
     FM012100 18004KT P6SM BKN020=

USA.gov is the U.S. government's official web portal to all federal, state and local government web resources and services.